Regional Weather Roundup
Issued by NWS Jackson, KY

Home | Current Version | Previous Version | Text Only | Print | Product List | Glossary On
Versions: 1 2 3 4 5 6 7 8 9 10 11 12 13 14 15 16 17 18 19 20 21 22 23 24 25 26 27 28 29 30 31 32 33 34 35 36 37 38 39 40 41 42 43 44 45 46 47 48 49 50
000
ASUS43 KJKL 231310
RWRJKL

EAST KENTUCKY HOURLY WEATHER ROUNDUP
NATIONAL WEATHER SERVICE JACKSON KY
900 AM EDT THU MAR 23 2017

NOTE: "FAIR" INDICATES FEW OR NO CLOUDS BELOW 12,000 FEET WITH
NO SIGNIFICANT WEATHER AND/OR OBSTRUCTIONS TO VISIBILITY.

* THESE REPORTS ARE NOT UNDER NWS QUALITY CONTROL AND MAY NOT
  REPORT WEATHER SUCH AS PRECIPITATION AND FOG.

KYZ079-080-083-085-087-088-110-112-115-119-120-231400
...EASTERN KENTUCKY...

CITY           SKY/WX    TMP DP  RH WIND       PRES   REMARKS
JACKSON        CLOUDY    32  15  49 VRB5      30.40R WCI  27
LONDON         SUNNY     37  16  42 E3        30.39R
SOMERSET*      SUNNY     36  18  48 E3        30.40S
MONTICELLO*    SUNNY     37  21  52 VRB6      30.39S WCI  32
WILLIAMSBURG*  SUNNY     37  21  52 SE6       30.38S WCI  33
MIDDLESBORO*   SUNNY     33  28  81 CALM      30.41S
HARLAN APT*    SUNNY     34  27  75 CALM      30.40R
PIKE CO APT*     N/A     34  18  52 E3        30.40R
BIG SANDY APT* SUNNY     33  18  54 NE5       30.43R WCI  29
MOREHEAD APT*  CLOUDY    32  12  43 VRB7G13   30.44F WCI  26
ASHLAND*       CLOUDY    32  16  51 E5        30.47F WCI  27
$$

KYZ035-036-041-042-044-050-067-078-099-231400
...CENTRAL KENTUCKY...

CITY           SKY/WX    TMP DP  RH WIND       PRES   REMARKS
MT STERLING*   SUNNY     32  18  55 E7        30.43S WCI  26
FLEMING/MASON* CLOUDY    30  15  54 E12       30.46R WCI  20
DANVILLE*      SUNNY     32  19  59 E7        30.40S WCI  26
LEXINGTON      SUNNY     34  15  46 E13       30.40S WCI  25
FRANKFORT      CLOUDY    34  15  46 E10       30.40S WCI  26
LOUISVILLE     MOSUNNY   36  16  44 CALM      30.43R
LEBANON*         N/A     34  18  51 E7        30.38S WCI  28
GLASGOW*       SUNNY     35  24  62 NE5       30.37R WCI  31
BOWLING GREEN  MOSUNNY   38  23  55 E8        30.36R WCI  32
$$

KYZ091>093-OHZ055-061-077-WVZ005-015-034-035-042-231400
...SOUTHERN OHIO/WEST VIRGINIA...

CITY           SKY/WX    TMP DP  RH WIND       PRES   REMARKS
COVINGTON      CLOUDY    31  16  54 E14       30.44S WCI  21
COLUMBUS       CLOUDY    28  11  48 E9        30.51R WCI  19
DAYTON         PTSUNNY   27  15  61 E12       30.47S WCI  17
WILMINGTON     CLOUDY    26  17  68 E9        30.47R WCI  17
HUNTINGTON     SUNNY     32  13  45 E7        30.46R WCI  26
CHARLESTON     MOSUNNY   31  16  54 NE6       30.46S WCI  25
PINEVILLE*     SUNNY     29  21  71 MISG      30.48R
BECKLEY        SUNNY     33  11  39 SE14G22   30.41S WCI  23
BLUEFIELD      SUNNY     32   8  36 SE9G21    30.42R WCI  24
LOGAN CO APT*    N/A     34  18  51 CALM      30.41R
$$

VAZ002-007-008-TNZ017-027-036-066-071-231400
...SOUTHWEST VIRGINIA/EAST TENNESSEE...

CITY           SKY/WX    TMP DP  RH WIND       PRES   REMARKS
WISE*          SUNNY     39  14  35 S7        30.39R WCI  34
JONESVILLE*      N/A     41  21  45 NE5       30.43R
ABINGDON*      SUNNY     39  15  37 E15       30.42S WCI  31
BRISTOL        MOSUNNY   39  22  50 NE3       30.43R
MORRISTOWN*    SUNNY     41  21  45 E5        30.38R
SEVIERVILLE*   SUNNY     36  28  75 CALM      30.39R
KNOXVILLE      MOSUNNY   42  24  49 NE3       30.39R
LAFOLLETTE*    SUNNY     39  27  60 CALM      30.43R
OAK RIDGE      SUNNY     44  22  41 NE3       30.41R
CROSSVILLE     SUNNY     43  22  43 SE5       30.34S
NASHVILLE      MOSUNNY   42  25  50 CALM      30.35R
$$

...KEY TO REMARKS...
VSB - VISIBILITY IN MILES
WCI - WIND CHILL INDEX
HX  - HEAT INDEX

$$



USA.gov is the U.S. government's official web portal to all federal, state and local government web resources and services.